Regional Weather Roundup
Issued by NWS State College, PA

Home | Current Version | Previous Version | Text Only | Print | Product List | Glossary Off
Versions: 1 2 3 4 5 6 7 8 9 10 11 12 13 14 15 16 17 18 19 20 21 22 23 24 25 26 27 28 29 30 31 32 33 34 35 36 37 38 39 40 41 42 43 44 45 46 47 48 49 50

000
ASUS41 KCTP 281710
RWRCTP

REGIONAL WEATHER ROUNDUP
NATIONAL WEATHER SERVICE STATE COLLEGE PA
100 PM EDT TUE MAR 28 2017

Note: "fair" indicates few or no clouds below 12,000 feet with no
significant weather and/or obstructions to visibility.

* = STATION THAT DOES NOT REPORT PRECIPITATION /E.G. RAIN...SNOW...ETC/
    THUNDER OR FOG.

PAZ002>004-007>009-013>016-020>023-029>032-281800-
WESTERN PENNSYLVANIA

CITY           SKY/WX    TMP DP  RH WIND       PRES   REMARKS
ERIE           FOG       43  42  97 N8        29.97R VSB 3/4
MEADVILLE      CLOUDY    51  47  86 N12       29.93R
FRANKLIN*      CLOUDY    52  48  87 N3        29.92S
NEW CASTLE     CLOUDY    54  51  90 N9        29.93R
BEAVER COUNTY  CLOUDY    54  52  94 N9        29.90F
BUTLER*        CLOUDY    55  54  94 N6        29.90S
PITTSBURGH INT CLOUDY    56  56 100 N8        29.89R
PITTSBURGH     CLOUDY    57  53  86 W7        29.87F
INDIANA*       CLOUDY    57  57 100 W5        29.91S FOG
LATROBE        CLOUDY    57  57 100 SW9       29.89F
WASHINGTON CO* CLOUDY    57  54  88 W5        29.91S
$$

PAZ004>006-010>012-017>019-024>028-033>037-041-042-045-046-049>053-281800-
CENTRAL PENNSYLVANIA

CITY           SKY/WX    TMP DP  RH WIND       PRES   REMARKS
BRADFORD       LGT RAIN  52  51  97 N6        29.89F
DUBOIS         CLOUDY    56  50  80 N5        29.88S
CLEARFIELD       N/A    N/A N/A N/A MISG      29.88F
JOHNSTOWN      CLOUDY    54  53  97 W7        29.88S
ALTOONA        CLOUDY    61  55  81 NW6       29.87F
STATE COLLEGE  CLOUDY    54  52  94 CALM      29.87F FOG
WILLIAMSPORT   LGT RAIN  52  50  93 CALM      29.87F FOG
SELINSGROVE    RAIN      54  52  93 CALM      29.87F FOG
FT INDIANTOWN  LGT RAIN  51  51 100 CALM      29.85F FOG
CAPITAL CITY   LGT RAIN  55  51  86 N8        29.84F FOG
HARRISBURG     LGT RAIN  54  53  97 NW10      29.83F
YORK           CLOUDY    54  54 100 CALM      29.85R
$$

PAZ038>040-043-044-047-048-054-055-060>062-067>071-281800-
EASTERN PENNSYLVANIA

CITY           SKY/WX    TMP DP  RH WIND       PRES   REMARKS
SCRANTON       HVY RAIN  53  51  93 SE6       29.88S FOG
MOUNT POCONO   LGT RAIN  47  47 100 S3        29.89S VSB 1/2
ALLENTOWN      RAIN      49  46  90 NE8       29.89F FOG
QUAKERTOWN*    CLOUDY    46  46 100 E5        29.88F
READING        LGT RAIN  50  50 100 NW5       29.85F VSB 1
LANCASTER      LGT RAIN  54  54 100 NE8       29.83F FOG
COATESVILLE    CLOUDY    50  50 100 CALM      29.85F
POTTSTOWN      LGT RAIN  47  47 100 VRB5      29.89F FOG
BLUE BELL      CLOUDY    46  46 100 NE9       29.87F
DOYLESTOWN     RAIN      46  46 100 VRB3      29.90F FOG
WILLOW GROVE   NOT AVBL
NORTH PHILA    LGT RAIN  50  48  93 NE10      29.91F FOG
PHILADELPHIA   LGT RAIN  51  49  92 NE10      29.87F FOG
$$



USA.gov is the U.S. government's official web portal to all federal, state and local government web resources and services.